BON225 FAOR-EGCC

Flight info

Callsign BON225
Flight time N/A
Altitude 32000
Route VASUR3B VASUR UZ21 ITROL UQ25 RUDAS UM731 DIR UB730 DJA UM2 TARAT UA605 RIMEL UR985 ELO DCT BIS DCT TAGRO DCT LUXUR M134 GENIO N859 MJV N861 CAVES M601 REBUL N863 GIROM DCT GONUP DCT TUPAR UN861 ANG DCT AKIKI UN867 AVANT UM184 HEMEL T420 ELVOS
Aircraft A346/H-SDE2E3FGHIJ3J4J5M1RWXY/LB1D1

Departure

Time N/A
Airport O.R. Tambo International Airport (FAOR)

Arrival

Time 2026-05-08 06:52
Airport Manchester Airport (EGCC)
Time Latitude Longitude Altitude Speed Heading
2026-05-08 05:33 45.14222 -0.02797 36797 ft 465 kts 339°
2026-05-08 05:34 45.17288 -0.04270 37346 ft 458 kts 339°
2026-05-08 05:34 45.20284 -0.05716 37836 ft 453 kts 339°
2026-05-08 05:34 45.23261 -0.07156 38112 ft 452 kts 339°
2026-05-08 05:34 45.26246 -0.08604 38229 ft 455 kts 339°
2026-05-08 05:35 45.29247 -0.10060 38360 ft 457 kts 339°
2026-05-08 05:35 45.32260 -0.11522 38528 ft 458 kts 339°
2026-05-08 05:35 45.35277 -0.12988 38710 ft 458 kts 339°
2026-05-08 05:35 45.38290 -0.14452 38887 ft 458 kts 339°
2026-05-08 05:36 45.41312 -0.15923 39044 ft 459 kts 339°
2026-05-08 05:36 45.44336 -0.17396 39200 ft 460 kts 339°
2026-05-08 05:36 45.47368 -0.18875 39331 ft 461 kts 339°
2026-05-08 05:36 45.50400 -0.20356 39478 ft 461 kts 339°
2026-05-08 05:37 45.53441 -0.21842 39600 ft 462 kts 339°
2026-05-08 05:37 45.56484 -0.23332 39729 ft 463 kts 339°
2026-05-08 05:37 45.59529 -0.24824 39851 ft 463 kts 339°
2026-05-08 05:38 45.65640 -0.27823 39944 ft 465 kts 339°
2026-05-08 05:38 45.71759 -0.30831 39952 ft 465 kts 339°
2026-05-08 05:39 45.77877 -0.33847 39957 ft 465 kts 339°
2026-05-08 05:39 45.83996 -0.36870 39958 ft 465 kts 339°
2026-05-08 05:40 45.90112 -0.39899 39954 ft 465 kts 339°
2026-05-08 05:40 45.96234 -0.42939 39954 ft 465 kts 339°
2026-05-08 05:41 46.02311 -0.45962 39955 ft 466 kts 339°
2026-05-08 05:41 46.08446 -0.49023 39946 ft 467 kts 339°
2026-05-08 05:42 46.14590 -0.52090 39948 ft 467 kts 339°
2026-05-08 05:42 46.20729 -0.55163 39946 ft 467 kts 339°
2026-05-08 05:43 46.26872 -0.58243 39946 ft 467 kts 339°
2026-05-08 05:43 46.33009 -0.61328 39945 ft 467 kts 339°
2026-05-08 05:44 46.39169 -0.64342 39946 ft 468 kts 341°
2026-05-08 05:44 46.45500 -0.66586 39945 ft 469 kts 348°
2026-05-08 05:45 46.51977 -0.67926 39948 ft 470 kts 351°
2026-05-08 05:45 46.58480 -0.69004 39947 ft 470 kts 352°
2026-05-08 05:46 46.64988 -0.70083 39954 ft 471 kts 352°
2026-05-08 05:46 46.71494 -0.71174 39956 ft 471 kts 352°
2026-05-08 05:47 46.78003 -0.72272 39960 ft 471 kts 352°
2026-05-08 05:47 46.84512 -0.73374 39961 ft 471 kts 351°
2026-05-08 05:48 46.91019 -0.74479 39968 ft 471 kts 351°
2026-05-08 05:48 46.97522 -0.75586 39962 ft 471 kts 351°
2026-05-08 05:49 47.03977 -0.76687 39965 ft 471 kts 351°
2026-05-08 05:49 47.10531 -0.77808 39964 ft 471 kts 351°
2026-05-08 05:50 47.16999 -0.78917 39967 ft 471 kts 351°
2026-05-08 05:50 47.23506 -0.80034 39966 ft 471 kts 351°
2026-05-08 05:51 47.30016 -0.81154 39984 ft 471 kts 351°
2026-05-08 05:51 47.36529 -0.82276 39980 ft 471 kts 352°
2026-05-08 05:52 47.43042 -0.83398 39979 ft 471 kts 352°
2026-05-08 05:52 47.49559 -0.84525 39983 ft 471 kts 351°
2026-05-08 05:53 47.56048 -0.85855 39990 ft 471 kts 348°
2026-05-08 05:53 47.62492 -0.87565 39993 ft 470 kts 348°
2026-05-08 05:54 47.68938 -0.89296 39993 ft 471 kts 348°
2026-05-08 05:54 47.75385 -0.91019 40001 ft 471 kts 348°
2026-05-08 05:55 47.80747 -0.92451 40001 ft 471 kts 348°
2026-05-08 05:55 47.87197 -0.94174 40001 ft 471 kts 348°
2026-05-08 05:56 47.93644 -0.95900 40008 ft 471 kts 348°
2026-05-08 05:56 48.00095 -0.97631 40010 ft 471 kts 348°
2026-05-08 05:57 48.06542 -0.99367 40010 ft 471 kts 348°
2026-05-08 05:57 48.12995 -1.01107 40011 ft 471 kts 348°
2026-05-08 05:58 48.19449 -1.02851 40011 ft 471 kts 348°
2026-05-08 05:58 48.25905 -1.04601 40012 ft 471 kts 348°
2026-05-08 05:59 48.32363 -1.06356 40003 ft 471 kts 348°
2026-05-08 05:59 48.38822 -1.08116 40003 ft 472 kts 348°
2026-05-08 06:00 48.45280 -1.09881 40001 ft 472 kts 348°
2026-05-08 06:00 48.51738 -1.11649 40004 ft 472 kts 348°
2026-05-08 06:01 48.58198 -1.13423 40000 ft 472 kts 348°
2026-05-08 06:01 48.64654 -1.15200 40008 ft 472 kts 348°
2026-05-08 06:02 48.71111 -1.16983 40011 ft 472 kts 348°
2026-05-08 06:02 48.77573 -1.18771 40018 ft 472 kts 348°
2026-05-08 06:03 48.84034 -1.20564 40015 ft 472 kts 348°
2026-05-08 06:03 48.90454 -1.22349 40012 ft 472 kts 348°
2026-05-08 06:04 48.96916 -1.24151 40019 ft 472 kts 348°
2026-05-08 06:04 49.03376 -1.25957 40019 ft 472 kts 348°
2026-05-08 06:05 49.09838 -1.27768 40021 ft 472 kts 348°
2026-05-08 06:05 49.16303 -1.29585 40020 ft 472 kts 348°
2026-05-08 06:06 49.22766 -1.31405 40020 ft 472 kts 348°
2026-05-08 06:06 49.29234 -1.33231 40020 ft 473 kts 348°
2026-05-08 06:07 49.35701 -1.35060 40019 ft 473 kts 348°
2026-05-08 06:07 49.42171 -1.36892 40020 ft 473 kts 348°
2026-05-08 06:08 49.48642 -1.38729 40020 ft 473 kts 348°
2026-05-08 06:08 49.55123 -1.40444 40013 ft 473 kts 351°
2026-05-08 06:09 49.61696 -1.41247 40012 ft 475 kts 357°
2026-05-08 06:09 49.68303 -1.41009 40012 ft 475 kts
2026-05-08 06:10 49.74910 -1.40397 40011 ft 476 kts
2026-05-08 06:10 49.81472 -1.39786 40010 ft 476 kts
2026-05-08 06:11 49.88076 -1.39185 40019 ft 476 kts
2026-05-08 06:11 49.94689 -1.38589 40021 ft 476 kts
2026-05-08 06:12 50.01281 -1.37769 40019 ft 475 kts
2026-05-08 06:12 50.07815 -1.36237 40021 ft 475 kts
2026-05-08 06:13 50.14349 -1.34588 40020 ft 475 kts
2026-05-08 06:13 50.20879 -1.32946 40026 ft 475 kts
2026-05-08 06:14 50.27409 -1.31305 40030 ft 475 kts
2026-05-08 06:14 50.33939 -1.29659 40028 ft 475 kts
2026-05-08 06:15 50.40471 -1.27999 40027 ft 476 kts
2026-05-08 06:15 50.46907 -1.25565 40034 ft 477 kts 16°
2026-05-08 06:16 50.53116 -1.21873 40036 ft 478 kts 24°
2026-05-08 06:16 50.58998 -1.16965 40035 ft 479 kts 30°
2026-05-08 06:17 50.67450 -1.08519 40035 ft 480 kts 31°
2026-05-08 06:17 50.73084 -1.02861 40042 ft 480 kts 31°
2026-05-08 06:18 50.78781 -0.97385 40041 ft 479 kts 27°
2026-05-08 06:18 50.84777 -0.92809 40043 ft 478 kts 21°
2026-05-08 06:19 50.91028 -0.89216 40044 ft 478 kts 17°
2026-05-08 06:19 50.97312 -0.85983 40052 ft 478 kts 17°
2026-05-08 06:20 51.03628 -0.82729 40045 ft 478 kts 17°
2026-05-08 06:20 51.09951 -0.79447 40052 ft 478 kts 17°
2026-05-08 06:21 51.16289 -0.76142 40050 ft 478 kts 17°
2026-05-08 06:21 51.22611 -0.72832 40063 ft 478 kts 17°
2026-05-08 06:22 51.28966 -0.69496 40068 ft 478 kts 17°
2026-05-08 06:22 51.35289 -0.66166 40070 ft 478 kts 17°
2026-05-08 06:23 51.41620 -0.62821 40069 ft 478 kts 17°
2026-05-08 06:23 51.47979 -0.59451 39925 ft 479 kts 17°
2026-05-08 06:24 51.51151 -0.57766 39510 ft 477 kts 17°
2026-05-08 06:24 51.54297 -0.56090 38991 ft 476 kts 17°
2026-05-08 06:24 51.57438 -0.54414 38437 ft 476 kts 17°
2026-05-08 06:24 51.60578 -0.52737 37836 ft 476 kts 17°
2026-05-08 06:25 51.63720 -0.51056 37227 ft 476 kts 17°
2026-05-08 06:25 51.66866 -0.49371 36600 ft 477 kts 17°
2026-05-08 06:25 51.70014 -0.47690 35961 ft 477 kts 16°
2026-05-08 06:25 51.73237 -0.46413 35294 ft 477 kts
2026-05-08 06:26 51.76530 -0.45844 34659 ft 476 kts
2026-05-08 06:26 51.79872 -0.45985 34014 ft 475 kts 353°
2026-05-08 06:26 51.83127 -0.46824 33374 ft 474 kts 346°
2026-05-08 06:26 51.86282 -0.48339 32733 ft 472 kts 338°
2026-05-08 06:27 51.89281 -0.50500 32088 ft 471 kts 331°
2026-05-08 06:27 51.92124 -0.53139 31452 ft 471 kts 328°
2026-05-08 06:27 51.94946 -0.55925 30798 ft 471 kts 327°
2026-05-08 06:27 51.97746 -0.58703 30143 ft 472 kts 327°
2026-05-08 06:28 52.00549 -0.61471 29493 ft 472 kts 327°
2026-05-08 06:28 52.03361 -0.64237 28824 ft 473 kts 328°
2026-05-08 06:28 52.06179 -0.67001 28141 ft 473 kts 328°
2026-05-08 06:28 52.08993 -0.69765 27462 ft 472 kts 328°
2026-05-08 06:29 52.11796 -0.72521 27012 ft 467 kts 328°
2026-05-08 06:29 52.14559 -0.75244 26566 ft 462 kts 328°
2026-05-08 06:29 52.17296 -0.77945 26071 ft 458 kts 328°
2026-05-08 06:29 52.20008 -0.80625 25598 ft 454 kts 328°
2026-05-08 06:30 52.22660 -0.83250 25089 ft 451 kts 328°
2026-05-08 06:30 52.25331 -0.85898 24636 ft 446 kts 328°
2026-05-08 06:30 52.27968 -0.88521 24214 ft 441 kts 328°
2026-05-08 06:30 52.30579 -0.91120 23749 ft 438 kts 328°
2026-05-08 06:31 52.33173 -0.93704 23280 ft 435 kts 328°
2026-05-08 06:31 52.35742 -0.96264 22861 ft 430 kts 328°
2026-05-08 06:31 52.38289 -0.98803 22445 ft 426 kts 328°
2026-05-08 06:31 52.40806 -1.01315 22047 ft 422 kts 328°
2026-05-08 06:32 52.43300 -1.03808 21680 ft 418 kts 327°
2026-05-08 06:32 52.45769 -1.06281 21303 ft 414 kts 327°
2026-05-08 06:32 52.48206 -1.08726 21035 ft 405 kts 327°
2026-05-08 06:32 52.50573 -1.11103 20963 ft 392 kts 327°
2026-05-08 06:33 52.52872 -1.13414 20860 ft 379 kts 327°
2026-05-08 06:33 52.55085 -1.15643 20761 ft 367 kts 327°
2026-05-08 06:33 52.57227 -1.17803 20648 ft 355 kts 327°
2026-05-08 06:33 52.59300 -1.19895 20570 ft 344 kts 327°
2026-05-08 06:34 52.61306 -1.21920 20461 ft 332 kts 327°
2026-05-08 06:34 52.63245 -1.23877 20366 ft 321 kts 327°
2026-05-08 06:34 52.65125 -1.25779 20285 ft 309 kts 327°
2026-05-08 06:34 52.66939 -1.27617 20206 ft 305 kts 327°
2026-05-08 06:35 52.68741 -1.29446 20116 ft 304 kts 327°
2026-05-08 06:35 52.70543 -1.31277 20019 ft 306 kts 327°
2026-05-08 06:35 52.72377 -1.33148 19563 ft 313 kts 327°
2026-05-08 06:35 52.74249 -1.35060 19032 ft 319 kts 327°
2026-05-08 06:36 52.76151 -1.37003 18510 ft 324 kts 327°
2026-05-08 06:36 52.78086 -1.38979 17960 ft 329 kts 327°
2026-05-08 06:36 52.80046 -1.40983 17426 ft 333 kts 327°
2026-05-08 06:36 52.82018 -1.42999 17040 ft 331 kts 327°
2026-05-08 06:37 52.83979 -1.45005 16734 ft 327 kts 327°
2026-05-08 06:37 52.85906 -1.46978 16397 ft 324 kts 327°
2026-05-08 06:37 52.87799 -1.48918 16117 ft 319 kts 327°
2026-05-08 06:37 52.89700 -1.50868 15805 ft 315 kts 327°
2026-05-08 06:38 52.91557 -1.52775 15469 ft 313 kts 327°
2026-05-08 06:38 52.93401 -1.54672 15104 ft 311 kts 327°
2026-05-08 06:38 52.95211 -1.56535 14758 ft 309 kts 327°
2026-05-08 06:38 52.97034 -1.58412 14413 ft 307 kts 327°
2026-05-08 06:39 52.98847 -1.60283 14053 ft 306 kts 327°
2026-05-08 06:39 53.00644 -1.62140 13699 ft 304 kts 327°
2026-05-08 06:39 53.02437 -1.63994 13346 ft 302 kts 327°
2026-05-08 06:39 53.04206 -1.65859 12989 ft 300 kts 323°
2026-05-08 06:40 53.05817 -1.68034 12635 ft 297 kts 315°
2026-05-08 06:40 53.07227 -1.70534 12277 ft 295 kts 310°
2026-05-08 06:40 53.08561 -1.73115 11920 ft 293 kts 309°
2026-05-08 06:40 53.09887 -1.75712 11561 ft 291 kts 309°
2026-05-08 06:41 53.11200 -1.78278 11186 ft 291 kts 309°
2026-05-08 06:41 53.12511 -1.80835 10816 ft 289 kts 309°
2026-05-08 06:41 53.13820 -1.83383 10440 ft 289 kts 309°
2026-05-08 06:41 53.15124 -1.85923 10077 ft 288 kts 309°
2026-05-08 06:42 53.16425 -1.88455 9712 ft 287 kts 309°
2026-05-08 06:42 53.17722 -1.90980 9341 ft 286 kts 309°
2026-05-08 06:42 53.19194 -1.93191 8923 ft 287 kts 330°
2026-05-08 06:42 53.21093 -1.94156 8552 ft 287 kts 354°
2026-05-08 06:43 53.22409 -1.94293 8356 ft 285 kts 358°
2026-05-08 06:43 53.24382 -1.94325 8090 ft 282 kts 360°
2026-05-08 06:43 53.26338 -1.94306 8006 ft 279 kts
2026-05-08 06:43 53.28284 -1.94276 7583 ft 281 kts
2026-05-08 06:44 53.30216 -1.94244 7395 ft 274 kts
2026-05-08 06:44 53.32097 -1.94213 7210 ft 266 kts
2026-05-08 06:44 53.33909 -1.94184 7025 ft 255 kts
2026-05-08 06:44 53.35655 -1.94154 6860 ft 246 kts
2026-05-08 06:45 53.37333 -1.94126 6719 ft 235 kts
2026-05-08 06:45 53.38937 -1.94099 6512 ft 225 kts
2026-05-08 06:45 53.40456 -1.94074 6225 ft 211 kts
2026-05-08 06:45 53.41874 -1.94049 5922 ft 197 kts
2026-05-08 06:46 53.43197 -1.94024 5644 ft 183 kts
2026-05-08 06:46 53.44445 -1.94002 5271 ft 177 kts
2026-05-08 06:46 53.45664 -1.93980 4991 ft 175 kts
2026-05-08 06:46 53.46865 -1.94240 4980 ft 175 kts 331°
2026-05-08 06:47 53.47754 -1.95610 4993 ft 173 kts 298°
2026-05-08 06:47 53.48078 -1.97535 4997 ft 172 kts 275°
2026-05-08 06:47 53.48087 -1.99522 4998 ft 169 kts 256°
2026-05-08 06:47 53.47678 -2.01358 4984 ft 168 kts 240°
2026-05-08 06:48 53.47052 -2.03020 4997 ft 169 kts 235°
2026-05-08 06:48 53.46378 -2.04608 4758 ft 165 kts 233°
2026-05-08 06:48 53.45669 -2.06172 4231 ft 170 kts 231°
2026-05-08 06:48 53.44930 -2.07737 3732 ft 171 kts 231°
2026-05-08 06:49 53.44151 -2.09357 3098 ft 180 kts 230°
2026-05-08 06:49 53.43352 -2.11006 2565 ft 182 kts 230°
2026-05-08 06:49 53.42566 -2.12624 2232 ft 173 kts 230°
2026-05-08 06:49 53.41825 -2.14149 1999 ft 163 kts 230°
2026-05-08 06:50 53.41111 -2.15622 1799 ft 161 kts 231°
2026-05-08 06:50 53.40404 -2.17083 1617 ft 161 kts 231°
2026-05-08 06:50 53.39701 -2.18536 1407 ft 160 kts 231°
2026-05-08 06:50 53.39005 -2.19990 1194 ft 160 kts 232°
2026-05-08 06:51 53.38314 -2.21444 946 ft 159 kts 231°
2026-05-08 06:51 53.37617 -2.22855 720 ft 158 kts 231°
2026-05-08 06:51 53.36919 -2.24307 481 ft 157 kts 231°
2026-05-08 06:51 53.36241 -2.25714 323 ft 157 kts 231°
2026-05-08 06:52 53.35586 -2.27061 273 ft 132 kts 230°
2026-05-08 06:52 53.35128 -2.28008 248 ft 73 kts 231°
2026-05-08 06:52 53.34877 -2.28527 243 ft 47 kts 231°
2026-05-08 06:52 53.34673 -2.28949 233 ft 39 kts 230°
2026-05-08 06:53 53.34555 -2.29204 220 ft 20 kts 251°
2026-05-08 06:53 53.34604 -2.29323 220 ft 6 kts 331°
2026-05-08 06:53 53.34660 -2.29334 216 ft 11 kts 10°
2026-05-08 06:53 53.34732 -2.29260 221 ft 14 kts 47°
2026-05-08 06:54 53.34799 -2.29129 228 ft 15 kts 50°
2026-05-08 06:54 53.34872 -2.28990 230 ft 16 kts 47°
2026-05-08 06:54 53.34951 -2.28856 237 ft 17 kts 45°
2026-05-08 06:54 53.35037 -2.28703 240 ft 19 kts 49°
2026-05-08 06:55 53.35127 -2.28519 239 ft 22 kts 51°
2026-05-08 06:55 53.35213 -2.28339 241 ft 21 kts 51°
2026-05-08 06:55 53.35312 -2.28153 247 ft 21 kts 45°
2026-05-08 06:55 53.35423 -2.27980 251 ft 22 kts 40°
2026-05-08 06:56 53.35571 -2.27901 255 ft 23 kts
2026-05-08 06:56 53.35739 -2.27874 255 ft 25 kts
2026-05-08 06:56 53.35912 -2.27848 256 ft 22 kts
2026-05-08 06:56 53.36015 -2.27917 256 ft 17 kts 313°
2026-05-08 06:57 53.36104 -2.28069 256 ft 16 kts 315°
2026-05-08 06:57 53.36189 -2.28203 256 ft 18 kts 316°
2026-05-08 06:57 53.36280 -2.28367 256 ft 21 kts 313°
2026-05-08 06:57 53.36386 -2.28460 256 ft 16 kts 38°
2026-05-08 06:58 53.36444 -2.28360 256 ft 12 kts 43°
2026-05-08 06:58 53.36512 -2.28253 256 ft 15 kts 43°
2026-05-08 06:58 53.36554 -2.28102 256 ft 16 kts 107°
2026-05-08 06:58 53.36470 -2.27982 256 ft 12 kts 147°
2026-05-08 06:59 53.36455 -2.27946 256 ft 4 kts 92°
2026-05-08 06:59 53.36473 -2.27912 256 ft 0 kts 14°
2026-05-08 06:59 53.36481 -2.27908 256 ft 3 kts 14°
2026-05-08 06:59 53.36504 -2.27891 256 ft 4 kts 37°
2026-05-08 07:00 53.36508 -2.27884 256 ft 0 kts 44°
2026-05-08 07:00 53.36510 -2.27882 256 ft 0 kts 45°
2026-05-08 07:00 53.36512 -2.27878 256 ft 1 kts 45°
2026-05-08 07:00 53.36513 -2.27876 256 ft 0 kts 45°